Weather History for Cordoba, Spain

Change the Weather History Date:

Wednesday, June 12, 2013

  Actual Average Record
Temperature  
Mean Temperature 78 °F -  
Max Temperature 97 °F - - ()
Min Temperature 59 °F - - ()
Cooling Degree Days 13    
Growing Degree Days 28 (Base 50)    
Moisture  
Dew Point 52 °F    
Average Humidity 38    
Maximum Humidity 82    
Minimum Humidity 11    
Precipitation  
Precipitation 0.00 in 0.02 in - ()
Sea Level Pressure  
Sea Level Pressure 30.09 in    
Wind  
Wind Speed 2 mph ()    
Max Wind Speed 7 mph    
Max Gust Speed -    
Visibility 6.2 miles    
Events      
T = Trace of Precipitation, MM = Missing Value Source: Averaged Metar Reports

Daily Weather History Graph

Daily Weather History Graph

Search for Another Location

Airport:

Trip Planner

Search our weather history database for the weather conditions in past years. The results will help you decide how hot, cold, wet, or windy it might be!

Date:

Astronomy

Jun. 12, 2013 Rise Set
Actual Time 6:56 AM CEST 9:42 PM CEST
Civil Twilight 6:25 AM CEST 10:13 PM CEST
Nautical Twilight 5:46 AM CEST 10:52 PM CEST
Astronomical Twilight 5:02 AM CEST 11:36 PM CEST
Moon 10:19 AM CEST (6/12) No Moon Set
Length of Visible Light 15h 47m
Length of Day
14h 45m
Waxing Crescent, 12% of the Moon is Illuminated
Jun 12
Waxing Crescent
Jun 16
First Quarter
Jun 23
Full
Jun 30
Last Quarter
Jul 8
New

Hourly Weather History & Observations

Time (CEST) Temp. Heat Index Dew Point Humidity Pressure Visibility Wind Dir Wind Speed Gust Speed Precip Events Conditions
2:00 AM 68 °F - 55 °F 54% 30.13 in - West 4.6 mph - -  
7:00 AM 59.0 °F - 53.6 °F 82% 30.12 in - Calm Calm - N/A   Clear
8:00 AM 64 °F - 55 °F 64% 30.15 in 25 mi Calm Calm - -  
8:00 AM 60.8 °F - 53.6 °F 77% 30.12 in - Calm Calm - N/A   Clear
9:00 AM 68.0 °F - 53.6 °F 60% 30.15 in - Calm Calm - N/A   Clear
10:00 AM 73.4 °F - 55.4 °F 53% 30.15 in - Calm Calm - N/A   Clear
11:00 AM 77.0 °F - 57.2 °F 50% 30.15 in - Variable 2.3 mph - N/A   Clear
12:00 PM 82.4 °F 82.0 °F 57.2 °F 42% 30.12 in - East 3.5 mph - N/A   Clear
12:44 PM 86.0 °F 84.2 °F 53.6 °F 33% 30.12 in - East 3.5 mph - N/A   Clear
1:00 PM 87.8 °F 85.7 °F 53.6 °F 31% 30.12 in - ESE 3.5 mph - N/A   Clear
2:00 PM 93 °F - 49 °F 13% 30.10 in 25 mi ESE 2.3 mph - -  
2:00 PM 91.4 °F - 50.0 °F 24% 30.09 in - East 1.2 mph - N/A   Clear
3:00 PM 91.4 °F - 48.2 °F 23% 30.09 in - SW 4.6 mph - N/A   Clear
4:00 PM 93.2 °F - 50.0 °F 23% 30.06 in 6.2 mi SSW 3.5 mph - N/A   Partly Cloudy
5:00 PM 93.2 °F - 48.2 °F 21% 30.04 in 6.2 mi South 3.5 mph - N/A   Partly Cloudy
6:00 PM 95.0 °F - 51.8 °F 23% 30.04 in 6.2 mi Variable 2.3 mph - N/A   Partly Cloudy
7:00 PM 95.0 °F - 50.0 °F 22% 30.01 in 6.2 mi SSW 5.8 mph - N/A   Partly Cloudy
8:00 PM 96 °F - 47 °F 11% 30.00 in 25 mi WSW 6.9 mph - -   Scattered Clouds
8:00 PM 93.2 °F - 51.8 °F 24% 30.01 in 6.2 mi WSW 5.8 mph - N/A   Partly Cloudy
9:00 PM 89.6 °F 87.3 °F 53.6 °F 29% 30.01 in - WSW 4.6 mph - N/A   Clear